DW8618 Nerja ES current weather conditions

sailwx.info

Wind from 328

Air temperature 16.7° C
Dewpoint 12.0° C

Last reported at 2018-May-23 03:01 UTC.
Time now 2018-May-23 03:26 UTC

Location: N 36°46' W 003°52'.
View on Google Maps.

See reports from other nearby stations

  
Tides and Currents Weather Stations Pressure Air Temp Water Temp Dewpoint Dewpoint Depression Visibility Wind Speed Wind Dir Waves Ship Positions
date/time (UTC)wind fromknots sea level pressurealtimeterstation pressurevisibilityair tempwater tempwave heightnotes
2018-May-23 03:01 328 16.7
2018-May-23 02:45 351 16.7
2018-May-23 02:30 005 17.8
2018-May-23 02:15 005 17.2
2018-May-23 02:01 005 17.2
2018-May-23 01:45 360 17.2
2018-May-23 01:30 360 17.2
2018-May-23 01:16 360 17.2
2018-May-23 01:01 355 17.2
2018-May-23 00:45 360 17.2
2018-May-23 00:31 026 17.8
2018-May-23 00:16 028 17.2
2018-May-23 00:01 344 17.8
2018-May-22 23:46 338 18.3
2018-May-22 23:30 338 18.3
2018-May-22 23:15 338 18.3
2018-May-22 23:01 338 17.8
2018-May-22 22:45 355 18.3
2018-May-22 22:31 132 18.9
2018-May-22 22:15 131 18.9
2018-May-22 22:01 132 18.9
2018-May-22 21:45 140 18.9
2018-May-22 21:31 134 19.4
2018-May-22 21:15 005 20.0
2018-May-22 21:01 342 20.0
2018-May-22 20:45 342 20.0
2018-May-22 20:30 322 20.0
2018-May-22 20:15 319 20.6
2018-May-22 19:45 323 20.6
2018-May-22 19:30 360 20.6
2018-May-22 19:15 317 20.6
2018-May-22 19:01 224 21.1
2018-May-22 18:46 222 21.1
2018-May-22 18:30 221 21.7
2018-May-22 18:15 229 20.6
2018-May-22 18:01 228 20.6
2018-May-22 17:45 215 20.6
2018-May-22 17:31 244 20.6
2018-May-22 17:15 214 0 gusting 5 20.6
2018-May-22 17:01 193 0 gusting 5 20.6
2018-May-22 16:45 187 1 gusting 5 21.1
2018-May-22 16:30 238 21.1
2018-May-22 16:15 196 2 gusting 5 21.1
2018-May-22 16:01 183 1 gusting 5 21.1
2018-May-22 15:45 192 1 gusting 4 21.1
2018-May-22 15:31 184 2 gusting 6 21.1
2018-May-22 15:15 221 0 gusting 6 21.7
2018-May-22 15:01 190 0 gusting 6 21.7
2018-May-22 14:45 213 21.7
2018-May-22 14:30 203 1 gusting 6 21.1
2018-May-22 14:16 211 0 gusting 5 21.7
2018-May-22 14:01 188 21.1
2018-May-22 13:45 184 0 gusting 6 21.1
2018-May-22 13:30 168 1 gusting 6 20.6
2018-May-22 13:15 178 2 gusting 6 20.6
2018-May-22 13:01 178 3 gusting 6 20.6
2018-May-22 12:45 185 0 gusting 4 21.1
2018-May-22 12:30 182 0 gusting 6 20.6
2018-May-22 12:15 234 0 gusting 4 20.6
2018-May-22 12:01 232 1 gusting 6 20.6
2018-May-22 11:45 194 3 gusting 6 20.6
2018-May-22 11:35 137 20.6
2018-May-22 11:15 156 1 gusting 6 20.6
2018-May-22 11:01 169 4 gusting 6 20.6
2018-May-22 10:45 171 2 gusting 5 20.6
2018-May-22 10:30 167 1 gusting 6 20.0
2018-May-22 10:15 163 3 gusting 6 20.0
2018-May-22 10:01 148 0 gusting 5 20.0
2018-May-22 09:45 140 20.0
2018-May-22 09:30 172 0 gusting 4 20.0
2018-May-22 09:15 161 19.4
2018-May-22 09:01 173 19.4
2018-May-22 08:45 167 0 gusting 4 18.9
2018-May-22 08:30 157 0 gusting 4 18.9
2018-May-22 08:15 159 18.9
2018-May-22 08:01 169 18.9
2018-May-22 07:45 169 18.9
2018-May-22 07:30 177 19.4
2018-May-22 07:15 165 18.9
2018-May-22 07:01 167 18.3
2018-May-22 06:45 165 18.3
2018-May-22 06:30 023 17.8
2018-May-22 06:15 022 16.7
2018-May-22 06:01 022 15.6
2018-May-22 05:45 355 15.6
2018-May-22 05:31 011 0 gusting 3 15.6
2018-May-22 05:15 323 15.6
2018-May-22 05:01 022 16.1
2018-May-22 04:30 355 15.6
2018-May-22 04:15 321 15.6
2018-May-22 04:01 005 15.6
2018-May-22 03:45 017 15.6
2018-May-22 03:30 012 15.6
2018-May-22 03:15 022 16.1
2018-May-22 03:01 005 16.1
2018-May-22 02:45 013 16.1
2018-May-22 02:31 009 16.1
2018-May-22 02:15 009 16.1
2018-May-22 02:01 010 16.7
2018-May-22 01:46 009 16.7
2018-May-22 01:30 009 16.7
2018-May-22 01:15 005 16.7
2018-May-22 01:01 005 16.7
2018-May-22 00:45 022 16.7
2018-May-22 00:30 360 16.7
2018-May-22 00:15 024 16.7
2018-May-22 00:01 345 16.1
2018-May-21 23:45 325 0 gusting 3 16.7
2018-May-21 23:30 011 16.7
2018-May-21 23:15 005 16.7
2018-May-21 23:01 313 17.2
2018-May-21 22:45 178 17.8
2018-May-21 22:30 175 17.8
2018-May-21 22:15 175 17.8
2018-May-21 22:01 143 17.8
2018-May-21 21:45 138 17.8
2018-May-21 21:30 080 17.8
2018-May-21 21:15 025 17.8
2018-May-21 21:01 019 17.8
2018-May-21 20:45 009 17.8
2018-May-21 20:30 336 17.8
2018-May-21 20:15 317 18.3
2018-May-21 20:01 360 18.3
2018-May-21 19:45 267 1 gusting 8 18.9
2018-May-21 19:31 280 18.9
2018-May-21 19:15 263 19.4
2018-May-21 19:01 248 19.4
2018-May-21 18:45 245 20.0
2018-May-21 18:30 282 0 gusting 6 20.0
2018-May-21 18:15 252 0 gusting 6 20.0
2018-May-21 18:01 252 19.4
2018-May-21 17:45 235 1 gusting 6 19.4
2018-May-21 17:30 194 0 gusting 6 20.0
2018-May-21 17:15 184 3 gusting 8 20.0
2018-May-21 17:01 223 0 gusting 6 20.6
2018-May-21 16:45 209 2 gusting 7 20.0
2018-May-21 16:31 200 5 gusting 7 20.6
2018-May-21 16:15 226 0 gusting 4 20.6
2018-May-21 16:01 257 0 gusting 6 20.0
2018-May-21 15:45 229 1 gusting 7 20.0
2018-May-21 15:30 202 19.4
2018-May-21 15:15 200 0 gusting 6 20.0
2018-May-21 15:01 204 0 gusting 5 20.0
2018-May-21 14:45 231 0 gusting 7 20.6
2018-May-21 14:31 217 1 gusting 5 20.6
2018-May-21 14:16 198 1 gusting 7 20.0
2018-May-21 14:01 192 3 gusting 6 20.0
2018-May-21 13:46 178 0 gusting 6 20.0
2018-May-21 13:15 178 19.4
2018-May-21 13:01 213 19.4
2018-May-21 12:45 209 2 gusting 6 19.4
2018-May-21 12:30 178 4 gusting 7 20.0
2018-May-21 12:15 201 1 gusting 6 19.4
2018-May-21 12:01 180 4 gusting 7 18.9
2018-May-21 11:46 217 5 gusting 7 19.4
2018-May-21 11:30 140 3 gusting 6 19.4
2018-May-21 11:15 149 4 gusting 9 18.9
2018-May-21 11:01 163 1 gusting 6 18.9
2018-May-21 10:45 209 2 gusting 6 18.9
2018-May-21 10:31 161 1 gusting 6 19.4
2018-May-21 10:15 133 0 gusting 6 18.9
2018-May-21 10:01 192 1 gusting 6 19.4
2018-May-21 09:45 191 2 gusting 6 18.9
2018-May-21 09:30 149 18.9
2018-May-21 09:15 207 0 gusting 4 18.9
2018-May-21 09:01 157 18.3
2018-May-21 08:45 168 3 gusting 5 18.9
2018-May-21 08:31 186 0 gusting 4 18.3
2018-May-21 08:16 163 18.3
2018-May-21 08:01 171 0 gusting 3 18.3
2018-May-21 07:45 159 1 gusting 5 18.3
2018-May-21 07:30 160 18.3
2018-May-21 07:16 153 18.9
2018-May-21 07:01 355 18.9
2018-May-21 06:46 355 17.8
2018-May-21 06:30 355 16.7
2018-May-21 06:15 360 16.7
2018-May-21 06:01 005 16.1
2018-May-21 05:46 005 15.6
2018-May-21 05:30 005 15.6
2018-May-21 05:15 005 16.1
2018-May-21 05:01 005 16.1
2018-May-21 04:45 005 16.1
2018-May-21 04:30 009 16.1
2018-May-21 04:15 005 16.1
2018-May-21 04:01 328 16.7
2018-May-21 03:45 327 16.7
2018-May-21 03:30 327 16.7
2018-May-21 03:15 326 16.7
2018-May-21 03:01 325 16.7